Theta_e
309 309 309 309 309 309 309 310 310 309 306 305 305 305 305 305 301 301 298 299 297 292 293 295 297 293 293 293 290 294 294 295 292 287 289 289 285 289 288 291 290 286 284 281 286 280 277 297 295 286 291 295 295 295
308 308 308 308 308 308 308 309 309 308 305 304 304 305 305 306 302 301 295 302 303 294 292 298 297 298 297 297 296 296 295 295 294 290 291 289 285 287 286 280 295 285 289 282 285 284 293 295 293 295 296 295 296 296
309 309 308 308 308 308 308 308 309 308 305 304 304 305 304 306 303 301 298 299 297 293 293 295 295 301 302 302 304 294 298 299 297 298 292 292 284 290 284 284 289 294 295 285 287 292 290 294 296 296 297 296 299 299
308 308 308 308 308 308 308 308 308 307 305 304 305 304 304 306 303 302 297 300 296 294 288 292 303 301 306 305 304 304 301 303 299 297 292 291 288 293 288 289 288 291 292 287 287 291 291 295 294 295 296 299 300 300
305 307 307 308 308 308 308 308 308 307 306 305 305 305 304 306 303 301 300 300 299 293 288 289 296 299 300 305 303 304 301 299 297 292 292 290 293 294 294 293 290 292 287 284 283 290 290 291 294 296 297 298 299 298
303 305 306 307 307 307 307 308 308 307 306 306 305 305 305 305 302 298 292 299 299 298 291 286 296 297 303 304 302 301 301 299 297 294 293 293 300 294 286 287 294 295 295 292 288 293 294 296 297 298 297 299 300 298
303 304 305 307 307 307 308 308 308 307 306 305 305 304 304 304 299 294 293 298 300 300 292 288 290 300 303 302 301 299 300 298 296 294 291 292 294 296 289 286 292 292 292 292 295 294 292 294 293 298 301 300 300 297
304 303 304 305 307 307 307 308 308 307 306 304 304 303 304 302 298 294 301 301 301 296 295 287 288 293 303 296 295 302 297 297 296 293 295 294 294 293 287 293 293 292 292 293 293 294 295 297 298 299 301 300 296 295
304 304 305 305 306 306 307 307 308 306 304 304 304 301 298 296 292 296 302 302 301 295 288 289 287 288 302 297 299 298 299 292 296 291 294 294 292 289 291 290 289 291 291 291 294 294 295 295 296 297 298 299 295 294
304 305 305 304 305 306 307 307 306 305 304 303 299 294 290 295 302 303 296 292 291 292 292 287 292 288 298 297 295 295 296 293 289 293 295 290 290 295 294 292 292 292 294 294 291 290 293 293 294 296 297 299 297 295
305 305 306 306 306 307 307 306 305 304 302 297 293 292 299 304 298 294 289 288 288 286 289 290 291 289 298 292 290 295 291 293 288 289 289 288 288 292 295 294 296 296 296 295 296 295 295 294 295 295 297 299 298 295
305 305 305 306 306 307 307 305 304 299 297 297 297 299 299 294 291 288 288 290 288 287 292 290 292 293 296 298 292 294 290 292 287 292 289 286 290 294 294 294 294 293 294 294 295 294 294 294 295 296 297 298 298 296
304 305 305 305 306 307 306 304 302 302 301 299 295 291 290 290 284 284 282 286 288 293 295 295 293 296 295 296 293 292 288 287 294 289 287 289 293 293 293 292 292 292 293 294 294 295 294 294 296 296 296 299 299 296
304 304 305 305 306 306 304 303 303 301 298 292 289 284 286 285 286 288 288 291 296 297 297 296 294 292 295 291 292 288 292 292 286 285 285 290 290 292 292 292 291 290 291 291 292 293 292 293 294 295 297 297 298 297
303 304 304 305 306 305 303 302 302 300 296 290 290 284 286 291 293 294 295 295 297 299 297 294 294 295 292 291 291 290 287 284 285 285 289 291 292 292 290 291 291 290 290 290 292 292 292 292 293 293 295 296 296 298
303 303 303 305 305 303 302 302 298 297 294 290 290 288 292 291 291 293 294 295 299 298 295 294 292 290 290 290 286 286 284 283 286 289 293 292 292 291 291 291 291 291 291 291 291 292 293 292 292 292 293 294 294 298
303 301 304 304 303 302 300 294 294 291 291 289 288 293 292 293 293 295 297 297 300 294 289 291 289 288 292 286 285 288 285 289 291 292 292 292 290 290 291 291 291 291 291 291 291 291 292 294 294 292 290 292 293 296
301 304 304 302 299 297 294 295 292 290 287 290 288 292 294 295 295 296 298 298 295 294 293 291 295 289 288 285 286 289 292 293 294 293 292 292 292 292 293 291 291 291 291 291 291 291 292 293 291 291 292 292 292 294
303 303 301 300 298 293 290 291 293 287 288 292 292 295 296 295 297 298 298 299 299 300 296 292 289 288 291 294 292 292 293 294 292 293 293 293 293 294 294 294 293 292 292 291 290 289 291 291 290 291 292 292 290 292
303 301 300 300 301 294 290 290 295 290 289 292 294 293 295 295 297 297 298 298 297 295 291 290 290 293 293 294 295 295 295 295 294 292 292 293 295 295 293 292 292 294 292 292 292 290 290 290 291 292 291 290 290 290
299 298 300 300 297 297 294 291 290 292 294 292 294 294 293 296 294 295 295 298 294 291 290 293 294 295 297 297 297 297 296 295 293 293 291 289 292 293 293 292 292 292 290 290 289 289 290 289 290 292 292 291 292 292
297 299 295 297 294 294 293 296 293 295 294 294 293 294 292 291 292 294 297 294 292 293 295 295 295 295 295 295 295 297 296 294 293 291 291 291 290 290 290 291 290 289 290 290 289 289 289 290 290 291 291 291 292 291
298 297 294 294 290 289 289 297 291 293 289 291 292 290 292 293 295 298 292 294 296 297 297 297 297 298 296 296 296 296 297 296 293 292 292 292 292 292 292 291 290 289 289 289 290 290 289 289 290 290 290 291 290 291
299 293 289 289 290 287 293 290 293 292 292 290 289 288 291 293 296 293 290 292 296 297 296 297 296 295 294 294 292 292 294 295 292 292 293 292 291 290 292 291 290 289 290 290 289 289 289 288 289 290 290 289 289 289
288 288 289 286 291 289 288 288 289 290 289 290 289 290 291 295 289 289 290 293 294 295 295 296 296 295 293 292 293 292 294 293 292 290 291 292 291 291 291 290 288 288 290 288 287 288 287 288 288 288 289 288 287 287
284 288 287 288 289 289 289 287 288 289 290 289 290 293 295 291 288 287 293 297 295 296 295 295 295 294 293 294 292 291 291 294 294 290 290 291 290 289 288 287 285 285 289 288 287 287 287 286 287 288 288 288 287 287
284 286 290 295 294 293 292 293 293 291 288 288 291 291 290 286 286 290 296 299 298 300 299 298 297 296 294 293 293 294 294 294 293 291 292 291 290 290 288 286 284 285 289 289 288 288 286 286 286 287 287 288 288 286
290 291 288 290 292 294 290 290 289 288 290 294 293 288 287 287 286 293 296 299 300 301 299 299 299 297 295 294 293 293 293 293 293 293 291 291 290 290 290 289 289 286 288 289 288 288 287 286 286 286 286 285 285 285
289 292 293 289 290 291 291 290 291 293 296 294 290 287 287 290 294 296 297 298 300 298 296 294 294 295 294 294 294 293 293 292 290 287 287 286 286 286 289 288 288 289 289 288 283 285 285 285 285 285 285 284 284 283
290 294 290 290 288 288 291 294 292 293 294 293 292 291 291 291 291 295 295 296 295 295 295 295 294 293 291 290 289 289 290 289 288 287 287 285 286 287 287 287 286 286 287 287 287 286 283 284 283 283 282 281 280 279
293 293 290 290 288 290 292 295 295 294 293 292 292 289 288 289 291 291 290 291 293 296 294 293 293 293 292 290 289 287 284 287 287 286 285 286 286 285 286 286 286 286 286 286 285 283 281 280 279 279 278 278 278 277
291 290 288 285 285 289 293 291 290 288 289 288 287 288 288 287 284 287 287 289 293 293 289 292 290 289 290 288 286 285 283 282 282 281 282 282 282 283 284 284 284 285 285 284 283 281 280 279 278 277 277 276 276 276
290 289 289 287 286 286 289 288 287 286 287 286 286 286 285 284 281 285 289 289 289 290 290 289 289 289 288 286 284 283 282 281 280 279 279 278 278 279 281 281 282 283 284 283 282 281 279 277 276 276 276 275 275 275
Wind_Speed
11 11 12 12 13 13 13 15 15 14 15 12 9 8 10 9 5 1 3 2 2 3 10 8 5 4 7 4 3 7 7 4 4 1 3 4 3 4 4 2 4 4 1 3 1 3 5 12 5 4 5 10 13 15
11 11 12 12 12 12 12 13 14 14 16 13 10 10 10 11 8 4 2 2 2 4 7 10 16 20 17 17 4 4 4 4 3 3 4 4 3 4 4 3 3 2 2 3 1 5 2 5 4 5 8 13 15 18
12 11 12 12 11 12 12 12 13 15 17 14 11 10 10 8 11 8 1 1 2 3 7 5 9 14 11 15 7 2 2 4 3 2 2 2 2 2 1 4 3 4 0 3 6 4 10 13 6 12 15 17 21 22
13 12 12 11 11 11 11 11 12 16 18 15 12 10 10 7 12 9 2 2 0 3 4 7 8 3 5 8 7 4 3 3 3 2 2 2 3 3 3 4 2 2 5 5 6 4 16 5 13 17 21 21 22 22
16 13 13 12 11 10 10 10 11 16 18 15 13 11 10 7 11 5 2 3 3 2 3 7 13 18 11 8 8 7 5 2 1 3 2 3 4 3 3 1 3 2 1 1 4 8 8 16 17 22 20 21 24 17
17 14 16 13 12 10 9 9 10 17 18 16 13 11 9 9 10 2 2 2 4 3 3 4 6 8 9 9 7 6 5 3 2 2 3 3 2 1 2 2 3 5 2 3 5 12 13 17 17 18 20 23 27 10
18 17 16 14 12 10 9 9 9 16 18 15 10 9 5 15 4 2 2 2 2 1 3 4 5 5 8 10 4 3 4 2 2 2 3 4 1 3 1 2 6 7 6 9 8 10 9 9 16 22 18 24 12 13
16 17 16 15 11 11 9 9 8 16 16 12 8 4 7 12 2 3 3 7 2 2 3 3 5 4 8 4 3 4 3 3 3 3 2 1 2 2 3 2 7 6 8 6 12 11 13 16 18 20 20 21 15 19
16 14 13 14 12 11 9 8 10 18 16 12 13 16 4 1 2 2 1 7 2 2 2 3 3 3 5 5 3 3 4 3 3 3 2 3 2 2 3 4 3 4 5 9 12 14 14 16 19 21 20 22 17 18
13 14 13 15 13 11 10 8 18 20 16 20 4 2 3 4 5 7 1 2 1 2 3 4 3 4 4 1 6 4 5 5 3 1 2 1 1 4 6 5 2 3 5 7 11 13 15 17 18 21 21 22 16 15
13 12 13 13 13 12 10 16 23 21 18 1 3 2 2 5 3 2 3 4 4 4 4 5 8 6 5 2 3 1 0 3 3 2 2 2 2 4 6 6 2 2 5 6 5 9 12 14 16 18 19 21 15 16
13 13 13 13 13 13 13 26 27 8 4 5 3 3 2 2 3 4 4 4 5 4 5 4 7 7 5 2 2 4 1 2 1 5 3 2 3 7 5 6 5 5 8 10 10 11 14 16 15 16 17 18 17 16
14 14 13 13 13 11 24 29 20 21 12 2 2 3 3 3 5 6 6 4 4 5 5 4 3 5 1 1 1 2 3 0 8 3 2 2 5 7 6 5 6 7 7 9 11 11 15 15 16 16 17 16 17 13
15 15 14 12 12 15 28 26 26 14 3 3 5 5 5 5 6 5 4 3 2 5 4 5 3 2 1 2 3 2 3 1 3 3 3 2 6 6 6 4 6 7 8 9 12 13 15 16 15 16 16 16 16 15
15 14 12 11 11 25 28 27 21 3 2 4 4 5 8 6 1 3 4 4 7 5 8 3 2 3 1 1 2 2 3 2 4 2 3 4 6 6 5 4 6 7 8 8 10 11 11 14 14 15 16 15 16 16
13 9 7 12 21 28 28 18 4 1 0 1 4 4 4 2 4 3 5 8 8 7 1 1 2 1 2 3 1 3 2 2 2 1 5 6 6 6 5 3 5 7 8 8 8 9 9 11 12 14 14 15 17 16
12 3 14 24 31 30 22 6 3 4 4 4 5 6 5 4 4 5 7 7 6 1 2 2 3 6 4 3 2 1 2 3 4 6 6 6 5 3 3 4 5 6 6 7 8 9 9 9 9 10 14 17 16 15
4 7 26 34 23 12 3 1 3 5 6 6 4 3 4 4 4 7 6 2 2 2 2 4 2 1 3 4 4 3 3 3 4 7 6 5 3 2 3 5 3 2 1 4 4 5 6 8 9 8 9 12 13 12
8 16 36 32 14 6 4 3 2 4 7 2 6 1 3 4 6 9 7 2 2 1 4 1 3 2 2 2 6 5 4 4 6 6 5 6 6 4 3 5 5 3 4 4 3 4 2 4 4 4 4 7 9 9
24 33 29 22 8 3 5 3 3 2 2 4 2 5 4 4 6 6 2 2 2 1 2 2 1 5 6 5 3 3 4 6 7 7 5 5 4 7 3 2 2 3 1 5 3 1 4 4 6 4 4 4 8 10
22 14 18 6 2 1 3 5 4 4 3 3 4 4 3 6 6 3 2 5 3 3 3 3 6 5 6 6 6 4 5 5 5 4 3 4 3 4 4 4 5 4 4 4 4 4 6 4 6 3 5 7 6 7
7 11 3 1 2 2 2 3 3 2 2 2 5 5 3 4 4 6 5 4 3 4 3 4 7 7 7 6 4 7 7 7 6 4 5 2 4 3 4 5 5 4 4 4 4 4 4 5 5 5 5 6 6 4
12 4 3 3 2 3 2 4 3 4 4 3 3 3 3 3 5 5 3 3 3 2 5 8 8 7 9 8 7 3 5 6 4 4 3 4 4 3 4 6 6 4 4 4 4 5 4 7 7 7 5 7 7 8
6 3 4 5 5 4 4 4 3 4 3 3 4 3 4 3 3 2 3 2 3 4 5 8 8 8 7 6 3 3 2 3 5 4 4 3 4 3 4 7 7 4 4 4 4 4 5 6 8 8 8 7 9 8
5 4 3 4 5 6 6 6 5 5 3 5 5 3 2 1 3 4 3 3 4 3 6 6 8 8 7 5 4 4 4 2 5 5 2 4 4 1 6 8 7 4 4 4 5 5 5 6 7 8 9 7 10 12
3 5 7 8 5 5 5 5 7 6 3 4 4 1 2 2 2 2 1 1 4 3 5 5 4 6 7 7 7 6 2 2 6 6 4 6 5 4 5 5 6 5 4 4 4 5 8 8 8 10 10 11 10 12
3 4 4 4 3 3 3 1 3 3 3 4 4 5 3 4 3 3 4 5 3 3 4 3 3 3 7 10 8 5 5 7 6 6 7 7 5 5 5 5 5 2 4 5 5 6 8 8 8 8 9 9 10 11
2 4 4 4 2 1 3 3 3 3 3 3 4 4 4 3 3 1 2 4 1 3 6 6 7 10 10 8 7 6 7 5 4 5 7 7 5 4 5 4 3 1 2 4 5 7 7 6 7 9 10 10 10 11
2 2 3 3 3 2 2 1 1 2 2 2 3 3 4 2 1 2 1 3 3 5 6 8 7 8 7 6 5 6 5 5 2 7 9 6 6 4 4 4 4 4 5 4 5 8 9 7 8 9 11 9 9 9
4 3 3 2 3 2 2 3 5 7 6 6 6 8 7 6 9 10 9 5 3 5 6 5 5 5 7 8 8 9 9 9 8 8 7 6 5 4 5 4 5 5 5 5 5 7 12 9 9 8 10 9 8 8
4 2 3 4 3 4 7 8 10 9 10 11 9 7 5 3 5 10 11 10 9 2 3 4 4 4 5 7 7 9 7 6 10 12 10 8 8 6 5 4 4 5 4 5 8 9 9 8 9 9 11 12 13 12
2 1 4 4 2 3 5 4 3 3 3 5 3 3 3 3 4 5 9 10 9 5 7 9 9 8 11 11 13 12 16 10 9 8 11 8 7 7 6 7 7 5 5 8 8 7 9 8 7 9 9 12 13 14
3 5 7 4 2 3 2 3 3 3 3 3 3 3 5 4 5 3 4 9 7 7 9 10 10 10 14 14 13 10 11 9 10 8 8 8 7 8 7 6 6 6 8 6 7 6 7 7 6 8 8 9 10 11
Wind_Direction
274 278 280 277 274 269 263 254 244 223 209 215 231 263 277 181 196 220 261 202 207 253 287 267 297 308 324 296 305 326 327 1 347 320 326 348 348 346 29 344 172 176 186 217 196 241 290 10 14 46 277 323 319 319
278 285 281 277 274 271 265 257 243 217 203 207 227 259 260 186 184 204 268 346 273 238 265 296 276 264 254 254 303 308 287 2 5 11 8 345 340 348 350 300 64 97 95 241 103 235 45 8 291 322 329 325 319 310
277 278 279 277 275 269 265 257 243 212 200 201 227 246 255 219 183 197 248 336 318 261 271 248 240 267 220 226 228 218 38 338 20 345 305 299 282 296 307 282 51 135 311 70 359 322 3 320 333 341 330 319 314 301
279 275 277 279 280 274 269 260 244 208 200 199 218 234 249 239 186 195 193 170 268 280 276 286 354 332 240 189 190 207 252 318 312 335 298 274 260 237 280 285 4 349 29 335 261 299 341 272 338 319 319 313 309 309
282 280 277 277 279 275 269 262 242 204 200 199 211 230 242 234 187 217 241 207 188 266 299 297 306 277 252 177 189 203 194 116 346 314 252 246 259 355 313 298 53 19 136 248 258 327 288 289 304 303 306 314 310 313
281 276 279 274 273 273 271 263 241 202 198 197 208 227 239 192 161 206 288 142 188 201 275 291 309 285 162 167 192 162 141 139 173 300 263 253 101 41 342 347 153 86 53 30 288 312 296 289 294 305 308 313 311 311
278 273 273 273 272 270 269 256 242 203 194 191 199 239 253 166 162 203 236 126 0 215 254 283 277 277 188 176 179 145 162 171 197 244 252 260 95 94 161 251 46 34 349 325 306 339 311 310 305 305 313 318 316 320
266 267 267 270 265 268 266 253 229 190 179 173 198 227 169 154 28 289 235 217 167 259 262 273 272 269 175 175 172 143 141 165 195 235 244 248 20 236 219 58 28 21 337 322 334 321 296 301 311 315 319 327 336 336
260 256 259 265 260 262 258 244 194 165 161 164 138 116 98 181 210 228 236 150 166 280 259 251 266 290 296 211 143 145 167 193 168 218 203 117 219 218 87 63 4 6 342 312 327 324 329 322 321 323 330 338 341 351
254 252 255 263 257 252 241 220 156 153 154 131 112 162 201 196 200 148 106 134 132 228 236 255 279 269 263 28 200 187 177 186 179 128 91 118 271 168 124 135 181 285 303 315 328 337 334 331 325 326 339 335 346 354
250 255 257 255 246 240 224 165 149 142 129 161 164 203 73 152 183 193 198 207 173 227 213 230 217 241 300 294 328 338 205 169 188 156 208 218 130 126 116 154 193 317 322 334 338 345 338 320 322 333 333 335 345 356
256 256 256 252 239 230 191 154 150 138 137 135 122 82 129 196 206 236 208 188 202 235 194 221 207 191 250 357 34 323 251 262 189 142 193 175 150 108 91 50 360 7 354 347 356 352 341 337 330 328 334 335 347 0
256 260 252 246 239 221 165 158 148 123 105 105 151 168 202 156 223 225 207 190 217 222 196 201 205 177 150 282 215 241 254 20 130 195 151 103 102 82 74 37 4 352 344 344 344 354 348 340 334 338 333 344 349 357
253 259 249 241 227 189 161 149 139 127 124 174 167 187 218 190 232 210 216 234 312 276 209 176 216 157 83 199 213 265 271 264 243 145 86 86 77 74 68 34 358 344 348 339 350 351 351 346 336 337 338 347 347 345
252 248 239 229 209 163 150 144 138 89 182 180 197 219 212 240 249 250 223 271 252 255 269 155 207 134 156 136 237 13 279 248 53 100 139 118 97 85 69 21 347 344 345 343 350 349 350 348 345 339 345 342 346 350
247 239 216 176 165 144 138 128 90 35 155 257 228 245 255 281 239 226 262 260 263 254 19 335 100 184 153 141 142 233 289 35 108 202 96 96 77 76 81 44 358 338 350 350 347 344 345 346 345 346 345 350 342 344
204 226 170 152 140 133 120 94 134 200 205 215 227 226 259 262 245 235 251 240 256 160 213 213 212 183 101 132 203 96 176 156 209 104 91 83 78 67 66 64 11 1 347 353 352 348 339 341 347 345 355 352 343 341
210 155 145 133 124 99 48 87 176 184 222 226 245 217 182 242 257 271 275 198 143 249 241 256 70 10 196 179 167 164 162 196 91 109 111 120 119 233 104 104 119 231 305 6 331 312 318 351 2 355 347 346 344 345
153 149 143 140 125 110 136 170 226 216 222 243 221 227 222 235 259 264 281 136 272 4 302 72 279 240 156 120 127 156 172 164 123 119 128 154 196 195 155 172 206 211 140 192 269 293 336 18 338 317 2 354 354 348
147 145 139 137 115 114 128 141 203 235 233 208 221 211 231 211 252 278 137 197 158 265 279 264 349 34 98 106 122 101 93 125 141 144 169 183 191 154 172 109 10 114 197 10 12 359 28 3 353 9 7 31 0 357
118 137 134 109 69 65 156 162 177 221 206 208 210 180 227 222 235 260 251 249 190 223 232 205 111 92 80 74 79 81 52 67 67 97 122 103 95 107 98 70 58 35 36 26 14 15 27 9 350 8 24 15 12 3
114 113 99 56 98 179 212 193 184 186 230 256 155 192 219 203 220 210 230 235 191 234 268 94 114 115 100 94 95 86 93 78 82 82 54 76 68 55 73 81 57 23 43 29 6 4 17 3 355 356 22 10 4 25
96 76 89 160 137 167 219 161 207 200 203 196 169 211 217 178 197 194 172 238 224 90 95 114 119 116 106 86 81 122 156 164 143 138 161 120 100 45 83 87 74 36 17 28 16 356 11 1 1 7 14 14 5 16
122 110 151 172 180 162 175 180 218 188 216 186 178 220 195 195 163 131 207 211 136 119 115 128 117 112 103 124 159 159 223 88 92 68 13 20 102 91 85 96 80 43 7 37 13 2 25 3 0 2 8 17 15 14
117 170 168 178 203 189 178 175 190 212 187 175 196 195 154 235 141 197 202 139 141 152 142 149 146 150 154 185 150 104 13 352 138 117 77 50 4 89 87 89 77 36 11 33 14 8 24 4 4 3 5 15 29 14
138 171 184 195 174 186 188 176 188 191 164 155 189 134 164 128 133 203 97 66 145 171 154 163 182 163 171 169 130 120 148 353 107 101 61 70 39 33 48 66 69 30 347 44 11 19 30 7 1 5 3 3 36 21
156 178 191 230 211 192 178 351 103 123 155 169 171 176 174 157 178 58 337 1 48 354 130 166 220 170 108 104 101 92 79 62 48 103 93 85 64 48 60 73 68 328 329 44 15 28 34 10 355 3 8 1 30 18
211 168 170 184 184 176 141 130 119 156 190 227 158 172 142 45 84 19 320 340 278 318 63 57 72 90 98 104 105 103 90 86 87 98 103 96 90 64 59 93 80 151 322 35 21 47 25 12 6 18 14 10 26 11
171 272 122 121 107 77 78 109 133 34 298 27 85 90 84 69 245 276 14 339 51 90 101 91 85 93 102 109 100 91 80 57 181 177 175 151 120 74 55 39 30 22 35 52 77 66 33 35 40 30 18 14 26 3
151 163 104 122 100 71 42 99 86 75 71 89 92 105 93 54 25 14 20 24 59 81 99 111 120 127 123 105 88 76 63 53 41 34 63 91 94 66 43 27 22 15 29 13 3 63 41 29 29 20 14 13 15 4
135 127 91 54 61 71 80 66 45 67 85 90 93 91 84 112 62 38 16 351 326 95 123 125 127 78 106 113 126 114 93 66 58 46 33 58 58 41 28 6 22 30 15 12 54 49 42 34 28 19 10 7 5 2
127 139 116 107 85 22 44 46 52 54 74 91 74 75 63 62 65 30 355 349 4 35 30 66 80 71 82 77 66 69 73 72 54 40 37 40 34 12 11 25 14 1 30 69 69 54 48 45 29 20 8 3 360 358
103 98 106 94 102 101 108 93 82 80 64 70 59 47 38 49 68 27 12 4 7 27 69 76 80 84 88 86 88 85 79 83 85 76 70 59 39 26 36 16 352 1 40 49 70 72 61 59 39 28 18 10 0 356